This is the latest recevied weather packets stored in our database for station/object WE3WEE. If no packets are shown the sender has not sent any weather packets the latest 10 day(s).
| Time | Temp. | Humidity | Pressure | Rain* | Wind** | Luminosity | Snow |
|---|---|---|---|---|---|---|---|
| 1778004269 | 25° C | 47% | 1008.5 hPa | 0 mm | - | - | - |
| 1778003966 | 25° C | 47% | 1008.5 hPa | 0 mm | - | - | - |
| 1778003662 | 25° C | 47% | 1008.5 hPa | 0 mm | - | - | - |
| 1778003358 | 24.44° C | 50% | 1008.5 hPa | 0 mm | - | - | - |
| 1778003057 | 24.44° C | 50% | 1008.5 hPa | 0 mm | - | - | - |
| 1778002752 | 24.44° C | 50% | 1008.5 hPa | 0 mm | - | - | - |
| 1778002449 | 24.44° C | 53% | 1008.5 hPa | 0 mm | - | - | - |
| 1778002146 | 24.44° C | 51% | 1008.5 hPa | 0 mm | - | - | - |
| 1778001844 | 24.44° C | 50% | 1008.5 hPa | 0 mm | - | - | - |
| 1778001543 | 24.44° C | 50% | 1008.5 hPa | 0 mm | - | - | - |
| 1778001240 | 24.44° C | 50% | 1008.5 hPa | 0 mm | - | - | - |
| 1778000937 | 24.44° C | 51% | 1008.5 hPa | 0 mm | - | - | - |
| 1778000634 | 24.44° C | 51% | 1008.5 hPa | 0 mm | - | - | - |
| 1778000329 | 23.89° C | 53% | 1008.5 hPa | 0 mm | - | - | - |
| 1778000025 | 24.44° C | 53% | 1008.5 hPa | 0 mm | - | - | - |
| 1777999721 | 23.89° C | 50% | 1008.5 hPa | 0 mm | - | - | - |
| 1777999417 | 23.89° C | 51% | 1008.5 hPa | 0 mm | - | - | - |
| 1777999116 | 23.89° C | 52% | 1008.5 hPa | 0 mm | - | - | - |
| 1777998814 | 23.89° C | 52% | 1008.5 hPa | 0 mm | - | - | - |
| 1777998513 | 23.89° C | 52% | 1009.6 hPa | 0 mm | - | - | - |
| 1777998208 | 23.33° C | 55% | 1009.6 hPa | 0 mm | - | - | - |
| 1777997905 | 23.89° C | 54% | 1009.6 hPa | 0 mm | - | - | - |
| 1777997603 | 23.89° C | 53% | 1009.6 hPa | 0 mm | - | - | - |
| 1777997300 | 23.89° C | 55% | 1009.6 hPa | 0 mm | - | - | - |
| 1777996998 | 23.33° C | 58% | 1009.6 hPa | 0 mm | - | - | - |
* Rain latest hour (hover to see other rain measurements)
** Current wind speed in m/s (hover to see current wind gust speed)